www.pogodaiklimat.ru

Погода и климат >> Архив погоды >> Казахстан >> Астана


АРХИВ ПОГОДЫ в Астане

Время (UTC), дата Ветер
(напр.,м/с)
 
Видим.   Явления Облачность Т
(С)
Тd
(С)
f
(%)
Тe
(С)
Тes
(С)
Комфортность P
(гПа)
Po
(гПа)
Тmin
(С)
Tmax
(С)
R
(мм)
R24
(мм)
S
(см)
15 11.08 СЗ 3 10 км 10/10 1000 м
[Sc]
+19.3 +12.9 66 +21 +21 комфорт 1001.6 961.9 +21.3
18 11.08 З 2 н/о {ливн. осадки} 9/9 1000 м
[Cb cap]
+14.5 +13.4 93 +14 +14 прохладно 1002.5 962.2 +21.3
21 11.08 З 1 н/о 10/10 300 м
[Sc]
+13.9 +12.1 89 +14 +14 по сезону 1003.3 962.8
00 12.08 С 2 10 км 3/3 1500 м
[Sc]
+11.7 +11.1 96 +10 +10 прохладно 1005.0 964.1
03 12.08 СЗ 2 10 км 4/4 1500 м
[Sc]
+12.5 +7.7 73 +12 +14 холодно 1006.9 966.0
06 12.08 СЗ 4 10 км 6/6 1000 м
[Sc]
+16.2 +5.3 48 +16 +19 холодно 1007.5 967.1 +11.7 2
09 12.08 С 5 10 км 8/4 1500 м
[Sc Ac As]
+17.6 +3.4 39 +17 +19 очень
холодно
1008.5 968.2
12 12.08 С 3 10 км 8/0
[Ac As]
+18.4 +3.2 36 +19 +20 холодно 1010.0 969.8
15 12.08 С 3 10 км 6/0
[Ac lent]
+15.2 +4.4 48 +15 +15 холодно 1012.2 971.5 +19.3
18 12.08 СВ 1 н/о ясно +10.6 +5.7 72 +10 +10 очень
холодно
1013.9 972.5 +19.3
21 12.08 ЮЗ 1 н/о ясно +9.0 +5.8 80 +8 +8 очень
холодно
1014.7 973.0
00 13.08 З 1 10 км ясно +8.9 +4.9 76 +8 +8 холодно 1015.9 974.1
03 13.08 СЗ 1 10 км ясно +14.4 +7.2 62 +15 +20 прохладно 1016.7 975.7
06 13.08 СЗ 1 10 км 3/3 1500 м
[Cu hum]
+20.4 +8.8 47 +23 +33 комфорт 1015.9 975.8 +8.2
09 13.08 Ю 1 10 км ясно +24.2 +6.1 31 +24 +38 комфорт 1014.9 975.3
12 13.08 З 1 10 км ясно +25.4 +6.4 30 +25 +29 комфорт 1014.6 975.1
15 13.08 штиль 0 10 км ясно +20.8 +9.8 49 +22 +22 комфорт 1015.9 975.8 +25.9
18 13.08 Ю 1 н/о ясно +19.4 +7.9 47 +21 +21 комфорт 1016.5 976.2 +25.9
21 13.08 Ю 1 н/о ясно +16.3 +8.3 59 +17 +17 тепло 1016.9 976.2
00 14.08 Ю 1 10 км ясно +15.4 +10.1 71 +16 +16 тепло 1018.1 977.2
03 14.08 ЮЗ 1 10 км ясно +18.2 +6.7 47 +19 +25 тепло 1018.5 977.9
06 14.08 З 1 10 км ясно +25.5 +7.9 33 +26 +41 жарко 1016.8 977.3 +14.4
09 14.08 ЮЗ 2 10 км ясно +28.0 +4.3 22 +27 +38 жарко 1015.2 976.0
12 14.08 З 1 10 км ясно +28.8 +9.8 31 +29 +33 жарко 1013.9 974.9
15 14.08 ЮВ 1 10 км ясно +25.8 +9.2 35 +26 +26 жарко 1014.2 974.8 +28.9
18 14.08 ЮВ 1 н/о ясно +22.0 +9.5 45 +24 +24 комфорт 1013.9 974.1 +28.9
21 14.08 штиль 0 н/о ясно +19.4 +7.9 47 +20 +20 тепло 1013.2 973.0
00 15.08 З 1 10 км 3/0
[Ci fib]
+17.8 +6.7 48 +19 +19 тепло 1012.6 972.2
03 15.08 ЮВ 2 10 км 3/0
[Cc]
+19.2 +7.4 46 +20 +25 тепло 1011.7 971.6
06 15.08 Ю 2 10 км 10/0
[Ac cuf Ci ing]
+25.2 +12.6 45 +27 +34 жарко 1009.6 970.4 +17.3
09 15.08 Ю 2 10 км 8/0
[Ac und]
+28.9 +8.1 27 +28 +33 жарко 1008.3 969.6
12 15.08 З 2 10 км 6/0
[Ac und]
+29.6 +5.9 22 +28 +30 жарко 1007.6 968.9
15 15.08 Ю 1 10 км 8/8 1500 м
[Sc]
+26.5 +8.0 31 +26 +26 жарко 1007.6 968.6 +30.9
18 15.08 В 2 н/о 3/0
[Ac und]
+20.5 +9.2 48 +23 +23 комфорт 1008.2 968.4 +30.9
21 15.08 СВ 1 н/о 8/8 1500 м
[Sc]
+19.7 +9.7 52 +22 +22 комфорт 1008.3 968.4
00 16.08 В 1 4000 м слабый ливневой дождь 10/10 1000 м
[Cb cap]
+20.6 +11.8 57 +24 +24 комфорт 1007.1 967.4
03 16.08 ЮВ 2 4000 м гроза, ливневой дождь 8/8 600 м
[Cb cap]
+19.2 +12.9 67 +21 +22 комфорт 1007.8 967.9
06 16.08 ЮВ 2 10 км осадки на расстоянии {гроза, ливн. осадки} 10/6 1000 м
[Cb cap Ac cast Ci ing]
+23.4 +11.0 46 +26 +28 жарко 1007.5 968.1 +19.0 0.8
09 16.08 СЗ 3 10 км гроза без осадков 9/9 600 м
[Cb cap]
+24.0 +13.5 52 +26 +27 жарко 1007.1 967.8
12 16.08 С 3 10 км гроза без осадков {ливн. осадки} 9/9 600 м
[Cb cap]
+18.0 +12.7 71 +18 +18 холодно 1008.8 968.7
15 16.08 ЮВ 1 10 км {гроза} 10/8 600 м
[Cb cap Ci ing]
+18.6 +11.8 65 +20 +20 по сезону 1007.0 967.0 +25.4
18 16.08 С 1 н/о {гроза} 8/8 600 м
[Sc]
+15.4 +11.4 77 +16 +16 по сезону 1011.2 970.6 +25.4 1
21 16.08 СЗ 1 н/о ясно +13.2 +11.5 89 +13 +13 по сезону 1011.5 970.6
00 17.08 С 2 10 км ясно +13.1 +11.8 92 +12 +12 по сезону 1012.6 971.6
03 17.08 С 2 10 км 3/3 600 м
[Sc]
+16.6 +12.9 79 +17 +20 по сезону 1013.7 973.2
06 17.08 С 3 10 км 4/3 1000 м
[Cu med, cong Ci fib]
+20.2 +13.3 65 +23 +30 комфорт 1013.8 973.8 +12.8
09 17.08 СЗ 2 10 км 8/8 1000 м
[Cu med, cong]
+23.5 +12.4 50 +25 +28 комфорт 1012.7 973.1
12 17.08 С 2 10 км 3/3 1000 м
[Cu hum]
+24.0 +10.5 43 +25 +27 комфорт 1012.1 972.6
15 17.08 штиль 0 10 км ясно +20.4 +11.9 58 +22 +22 комфорт 1013.1 973.1 +24.9
18 17.08 Ю 1 н/о ясно +17.4 +12.4 72 +18 +18 тепло 1013.2 972.8 +24.9
21 17.08 Ю 1 н/о ясно +16.9 +11.6 71 +18 +18 тепло 1012.7 972.3
00 18.08 ЮВ 1 10 км 4/0
[Ci fib]
+14.7 +12.0 84 +15 +15 тепло 1013.1 972.3
03 18.08 Ю 1 10 км 4/0
[Ci fib]
+19.3 +11.8 62 +22 +26 комфорт 1012.4 972.3
06 18.08 Ю 1 10 км ясно +25.2 +11.9 43 +27 +41 жарко 1010.8 971.5 +14.4
09 18.08 Ю 2 10 км 6/3 1000 м
[Cu hum Ci]
+27.5 +11.3 36 +28 +36 жарко 1008.7 969.8
12 18.08 Ю 1 10 км 3/3 1500 м
[Sc]
+28.1 +8.7 30 +28 +30 жарко 1007.6 968.8

 

Местоположение метеостанции Астана (город Астана, Казахстан): широта 51.13 долгота 71.37 высота над уровнем моря 350 м.

В архиве по умолчанию представлена погода в Астане за последнюю неделю. Архивные данные за месяц целиком и за предыдущие месяцы, начиная с января 2011 года, Вы можете получить, выбрав интересующий диапазон дат из раскрывающегося списка и нажав кнопку "Ввод!".


*Определитесь, кто Вы:
робот инопланетянин человек

Внимание! Время в таблицах - всемирное. Для получения местного времени необходимо прибавить поправку, которая в Астане равна 6 ч.

Смотрите также архив погоды в соседних городах и на ближайших метеорологических станциях:

Погода в Астане 2 (город Астана, Казахстан) (4 км)
Погода в Арнасае (Акмолинская область, Казахстан) (51 км)
Погода в Шортанды (Акмолинская область, Казахстан) (65 км)
Погода в Аршалы (Акмолинская область, Казахстан) (73 км)
Погода в Новомарковке (Акмолинская область, Казахстан) (92 км)
Погода в Киевке (Карагандинская область, Казахстан) (99 км)
Погода в Акколе (Акмолинская область, Казахстан) (101 км)
Погода в Осакаровке (Карагандинская область, Казахстан) (105 км)
Погода в Кургальджин (Акмолинская область, Казахстан) (114 км)
Погода в Жалтыре (Акмолинская область, Казахстан) (122 км)

Пояснения к столбцам:

Ветер - указаны скорость ветра в м/с - средняя за 10 мин, порывы в срок и между сроками (в фигурных скобках) и направление, откуда дует ветер: С - северный, СВ - северо-восточный, В - восточный, ЮВ - юго-восточный, Ю - южный, ЮЗ - юго-западный, З - западный, СЗ - северо-западный.
Видимость - горизонтальная дальность видимости в метрах или километрах. При видимости от 1 до 10 км при отсутствии осадков обычно наблюдается дымка, при ухудшении видимости до 1 км и менее - туман. В сухую погоду видимость может ухудшаться дымом, пылью или мглою.
Явления - указаны атмосферные явления, наблюдавшиеся в срок или в последний час перед сроком; фигурными скобками обозначены явления, наблюдавшиеся между сроками (за 1-3 часа до срока); квадратными скобками обозначены град или гололедные отложения с указанием их диаметра в мм.
Облачность - указаны через наклонную черту общая и нижняя облачность в баллах и высота нижней границы облаков в метрах; квадратными скобками обозначены формы облаков: Ci - перистые, Cs - перисто-слоистые, Cc - перисто-кучевые, Ac - высококучевые, As - высокослоистые, Sc - слоисто-кучевые, Ns - слоисто-дождевые, Cu - кучевые, Cb - кучево-дождевые. Подробнее классификацию облаков см. в Атласе облаков (PDF).
T - Температура воздуха - температура, измеренная на высоте 2 м над землей.
Td - Температура точки росы - температура, при понижении до которой содержащийся в воздухе водяной пар достигнет насыщения.
f - Относительная влажность воздуха - влажноcть воздуха, измеренная на высоте 2 м над землей.
Te - Эффективная температура - температура, которую ощущает одетый по сезону человек в тени. Характеристика душности погоды. При расчете учитывается влияние влажности воздуха и скорости ветра на теплоощущения человека.
Tes - Эффективная температура на солнце - температура, которую ощущает человек, с поправкой на солнечный нагрев. Характеристика знойности погоды. Зависит от высоты солнца над горизонтом, облачности и скорости ветра. Ночью, в пасмурную погоду, а также при ветре 12 м/с и более поправка равна нулю.
P - Атмосферное давление - приведенное к уровню моря атмосферное давление.
Po - Атмосферное давление - измеренное на уровне метеостанции атмосферное давление.
Tmin - Минимальная температура - минимум температуры воздуха на высоте 2 м над землей.
Tmax - Максимальная температура - максимум температуры воздуха на высоте 2 м над землей.
R - Количество осадков - Количество выпавших осадков за период времени, мм. При наведении курсора мыши на число - период времени, за который выпало указанное количество осадков.
R24 - Количество осадков - Количество выпавших осадков за 24 часа, мм.
S - Снежный покров - Высота снежного покрова, см. При наведении курсора мыши на число - состояние снежного покрова и степень покрытия местности в баллах.